Вернуться в каталог

STARLINK-36747

АктивенСвязьSSO
NORAD 67730·PAYLOAD·🇺🇸 United States

Запущен Feb 11, 2026 с Vandenberg Space Force Base

Loading…

Ближайшие Пролёты (ближайшие 24 часа)

TLE

СвежийSource: CelesTrak SupGP

Эпоха: Sep 14, 2026, 21:25 UTC

1 67730C 26026K   26257.89284722 -.00011296  00000+0 -35072-3 0  2570
2 67730  97.2844 309.7836 0001076  93.2068 129.2564 15.33439613    15

Отслеживайте STARLINK-36747 в реальном времени с AllMySat

Download on the App Store